Home > Weather > Kabul > Past weeks

Flag for Afghanistan Weather for the Past 2 Weeks in Kabul, Afghanistan

Now
48 °F

Haze.


Feels Like: 46 °F
Forecast: 28 / 39 °F
Wind: 5 mph from Southwest

Location: Peshawar Airport

Current Time: Feb 9, 2016 at 7:09:50 AM

Latest Report: Feb 9, 2016 at 6:30 AM


Visibility: 2 mi

Pressure: 30.04 "Hg (24.16 "Hg at 1800m altitude)

Humidity: 71%

Dew point: 39 °F

Location of KabulLocation

Historic Weather in Kabul — Graph

°F

Kabul Temperature Yesterday

Maximum temperature yesterday: 68 °F (at 3:30 PM)
Minimum temperature yesterday: 46 °F (at 6:30 AM)
Average temperature yesterday: 57 °F

High & Low Weather Summary for the Past Weeks

 TemperatureHumidityPressure
High73 °F (Feb 3, 2:30 PM)100% (Jan 25, 5:30 AM)30.18 "Hg (Jan 25, 5:30 AM)
Low37 °F (Jan 25, 5:30 AM)27% (Jan 31, 1:30 PM)29.89 "Hg (Feb 6, 4:30 AM)
Average56 °F60%30.05 "Hg
* Reported Jan 25 5:30 AM — Feb 9 5:30 AM, Kabul, Weather by CustomWeather, © 2016

Note: Actual official high and low records may vary slightly from our data, if they occured in-between our weather recording intervals... More about our weather records

Advertising

Kabul Weather History for the Previous 24 Hours

 ConditionsComfort  
Time TempWeatherWind HumidityBarometerVisibility
5:30 AM
Tue, Feb 9
48 °FHaze.7 mph71%30.04 "Hg2 mi
4:29 AM50 °FHaze.5 mph76%30.04 "Hg2 mi
3:30 AM50 °FPassing clouds.5 mph76%30.04 "Hg2 mi
2:30 AM50 °FHaze.No wind76%30.07 "Hg2 mi
1:30 AM52 °FPassing clouds.No wind77%30.07 "Hg2 mi
11:30 PM
Mon, Feb 8
54 °FPassing clouds.No wind72%30.09 "Hg2 mi
10:30 PM54 °FPassing clouds.No wind72%30.09 "Hg1 mi
9:30 PM55 °FPassing clouds.No wind67%30.09 "Hg1 mi
8:30 PM57 °FPassing clouds.No wind63%30.09 "Hg1 mi
7:30 PM57 °FPassing clouds.No wind63%30.07 "Hg1 mi
6:30 PM61 °FPassing clouds.No wind59%30.07 "Hg1 mi
5:30 PM61 °FPassing clouds.5 mph55%30.04 "Hg1 mi
4:30 PM64 °FScattered clouds.No wind46%30.04 "Hg1 mi
3:30 PM68 °FScattered clouds.5 mph40%30.04 "Hg1 mi
2:30 PM66 °FHaze.5 mph43%30.04 "Hg2 mi
1:30 PM66 °FSunny.5 mph46%30.07 "Hg2 mi
12:30 PM66 °FHaze.No wind46%30.09 "Hg2 mi
11:30 AM64 °FHaze.7 mph49%30.12 "Hg2 mi
10:30 AM61 °FHaze.No wind55%30.12 "Hg1 mi
9:30 AM55 °FHaze.No wind63%30.12 "Hg1 mi
8:30 AM52 °FHaze.No wind62%30.12 "Hg1 mi
7:30 AM50 °FHaze.No wind67%30.09 "Hg1 mi
Weather by CustomWeather, © 2016

See weather overviewHow to use our weather pages